Location: Seven Kings
(51.5667°N, 0.1000°E)
Time: 20:54:03
(UTC+00:00)

X-37B - Pass Details

Date: 26 June 2021
Orbit: 383 x 392 km, 45.0° (Epoch: 01 July)

Event Time Altitude Azimuth Distance (km) Brightness Sun altitude
Rises 22:22:39 0° 253° (WSW) 2,256 4.5 -12.0°
Reaches altitude 10° 22:24:56 10° 240° (WSW) 1,402 3.3 -12.1°
Maximum altitude 22:27:34 25° 183° (S) 830 1.7 -12.3°
Enters shadow 22:28:10 23° 163° (SSE) 868 1.7 -12.3°
